DAL1448 KLAX-KSAN

Flight info

Callsign DAL1448
Flight time 0h 36m
Altitude 13000
Route LAXX1 MZB
Aircraft B78X/H-SDE1E2E3FGHIJ2J3J4J5M1RWXY/LB1D1

Departure

Time 2026-04-26 04:55
Airport Los Angeles International Airport (KLAX)

Arrival

Time 2026-04-26 05:32
Airport San Diego International Airport (KSAN)
Time Latitude Longitude Altitude Speed Heading
2026-04-26 04:24 33.94025 -118.40918 127 ft 0 kts 264°
2026-04-26 04:43 33.94026 -118.40909 131 ft 2 kts 264°
2026-04-26 04:43 33.94028 -118.40886 127 ft 3 kts 263°
2026-04-26 04:44 33.94030 -118.40865 131 ft 3 kts 253°
2026-04-26 04:44 33.94038 -118.40844 131 ft 3 kts 222°
2026-04-26 04:44 33.94054 -118.40832 130 ft 3 kts 192°
2026-04-26 04:44 33.94072 -118.40830 131 ft 2 kts 173°
2026-04-26 04:45 33.94080 -118.40831 131 ft 0 kts 172°
2026-04-26 04:47 33.94071 -118.40830 131 ft 5 kts 172°
2026-04-26 04:47 33.94018 -118.40821 124 ft 11 kts 172°
2026-04-26 04:47 33.93930 -118.40807 129 ft 13 kts 169°
2026-04-26 04:47 33.93865 -118.40761 126 ft 11 kts 137°
2026-04-26 04:48 33.93818 -118.40579 129 ft 14 kts 85°
2026-04-26 04:48 33.93832 -118.40452 131 ft 17 kts 82°
2026-04-26 04:48 33.93848 -118.40305 131 ft 19 kts 82°
2026-04-26 04:49 33.93864 -118.40141 124 ft 21 kts 84°
2026-04-26 04:49 33.93883 -118.39966 127 ft 22 kts 82°
2026-04-26 04:49 33.93901 -118.39781 128 ft 23 kts 83°
2026-04-26 04:49 33.93920 -118.39587 131 ft 24 kts 83°
2026-04-26 04:50 33.93941 -118.39385 126 ft 25 kts 82°
2026-04-26 04:50 33.93964 -118.39177 128 ft 26 kts 83°
2026-04-26 04:50 33.93985 -118.38961 127 ft 26 kts 83°
2026-04-26 04:50 33.94004 -118.38773 130 ft 21 kts 83°
2026-04-26 04:51 33.94020 -118.38615 130 ft 19 kts 83°
2026-04-26 04:51 33.94037 -118.38452 128 ft 18 kts 84°
2026-04-26 04:51 33.94042 -118.38379 127 ft 0 kts 86°
2026-04-26 04:53 33.94047 -118.38343 128 ft 9 kts 82°
2026-04-26 04:53 33.94058 -118.38248 131 ft 13 kts 82°
2026-04-26 04:53 33.94070 -118.38138 128 ft 15 kts 83°
2026-04-26 04:53 33.94060 -118.38018 127 ft 13 kts 130°
2026-04-26 04:54 33.93991 -118.38021 126 ft 8 kts 225°
2026-04-26 04:54 33.93979 -118.38067 129 ft 0 kts 261°
2026-04-26 04:54 33.93965 -118.38198 128 ft 52 kts 263°
2026-04-26 04:55 33.93881 -118.39014 127 ft 141 kts 263°
2026-04-26 04:55 33.93760 -118.40375 588 ft 181 kts 268°
2026-04-26 04:55 33.93636 -118.41946 1516 ft 193 kts 264°
2026-04-26 04:55 33.93483 -118.43557 2196 ft 201 kts 263°
2026-04-26 04:56 33.93312 -118.45235 3315 ft 200 kts 263°
2026-04-26 04:56 33.93133 -118.46933 4453 ft 208 kts 263°
2026-04-26 04:56 33.92944 -118.48682 4990 ft 213 kts 263°
2026-04-26 04:56 33.92754 -118.50435 4968 ft 205 kts 263°
2026-04-26 04:57 33.92579 -118.52072 4969 ft 190 kts 263°
2026-04-26 04:57 33.92403 -118.53730 4988 ft 211 kts 263°
2026-04-26 04:57 33.92177 -118.55455 4977 ft 211 kts 254°
2026-04-26 04:57 33.91189 -118.56868 5013 ft 248 kts 211°
2026-04-26 04:58 33.89468 -118.57385 5016 ft 260 kts 187°
2026-04-26 04:58 33.87657 -118.57420 5328 ft 262 kts 182°
2026-04-26 04:58 33.85840 -118.57360 6221 ft 261 kts 181°
2026-04-26 04:58 33.84017 -118.57284 7221 ft 264 kts 182°
2026-04-26 04:59 33.82176 -118.57201 8204 ft 267 kts 182°
2026-04-26 04:59 33.80309 -118.57104 9139 ft 270 kts 182°
2026-04-26 04:59 33.78421 -118.56993 10053 ft 273 kts 182°
2026-04-26 04:59 33.76512 -118.56870 10893 ft 276 kts 182°
2026-04-26 05:00 33.74583 -118.56737 11718 ft 280 kts 182°
2026-04-26 05:00 33.72589 -118.56596 12283 ft 295 kts 182°
2026-04-26 05:00 33.70486 -118.56447 12755 ft 311 kts 182°
2026-04-26 05:00 33.68222 -118.56295 12987 ft 344 kts 182°
2026-04-26 05:01 33.65707 -118.56147 12994 ft 376 kts 181°
2026-04-26 05:01 33.63045 -118.56002 12998 ft 388 kts 181°
2026-04-26 05:01 33.60289 -118.55861 12996 ft 396 kts 181°
2026-04-26 05:01 33.57521 -118.55720 13000 ft 403 kts 181°
2026-04-26 05:02 33.54752 -118.55580 13007 ft 401 kts 181°
2026-04-26 05:02 33.51964 -118.55440 12993 ft 395 kts 181°
2026-04-26 05:02 33.49180 -118.55299 12976 ft 400 kts 181°
2026-04-26 05:02 33.46417 -118.55156 13004 ft 403 kts 181°
2026-04-26 05:03 33.43641 -118.55011 13005 ft 398 kts 181°
2026-04-26 05:03 33.40855 -118.54863 13004 ft 397 kts 181°
2026-04-26 05:03 33.38079 -118.54714 13008 ft 402 kts 181°
2026-04-26 05:03 33.35307 -118.54565 13007 ft 401 kts 181°
2026-04-26 05:04 33.32567 -118.54418 13006 ft 398 kts 181°
2026-04-26 05:04 33.29786 -118.54268 13002 ft 398 kts 181°
2026-04-26 05:04 33.27004 -118.54117 13002 ft 400 kts 181°
2026-04-26 05:04 33.24237 -118.53965 12986 ft 400 kts 181°
2026-04-26 05:05 33.21464 -118.53812 12981 ft 399 kts 181°
2026-04-26 05:05 33.18693 -118.53658 12981 ft 398 kts 181°
2026-04-26 05:05 33.15927 -118.53401 12972 ft 403 kts 174°
2026-04-26 05:05 33.13255 -118.52311 12980 ft 411 kts 158°
2026-04-26 05:06 33.10823 -118.50453 12981 ft 417 kts 148°
2026-04-26 05:06 33.08544 -118.48302 12982 ft 419 kts 144°
2026-04-26 05:06 33.06324 -118.46049 12983 ft 419 kts 143°
2026-04-26 05:06 33.04127 -118.43761 12976 ft 421 kts 143°
2026-04-26 05:07 33.01923 -118.41442 12978 ft 421 kts 142°
2026-04-26 05:07 32.99731 -118.39126 12979 ft 421 kts 142°
2026-04-26 05:07 32.97537 -118.36803 12975 ft 422 kts 142°
2026-04-26 05:07 32.95365 -118.34499 12975 ft 419 kts 142°
2026-04-26 05:08 32.93187 -118.32188 12977 ft 417 kts 142°
2026-04-26 05:08 32.90983 -118.29853 12982 ft 431 kts 142°
2026-04-26 05:08 32.88752 -118.27492 12985 ft 433 kts 142°
2026-04-26 05:08 32.86518 -118.25128 12986 ft 428 kts 142°
2026-04-26 05:09 32.84272 -118.22753 12982 ft 429 kts 142°
2026-04-26 05:09 32.82070 -118.20412 12977 ft 414 kts 142°
2026-04-26 05:09 32.79998 -118.18187 12972 ft 391 kts 142°
2026-04-26 05:09 32.77992 -118.16022 12973 ft 390 kts 142°
2026-04-26 05:10 32.76110 -118.13702 12980 ft 396 kts 129°
2026-04-26 05:10 32.74900 -118.10740 12982 ft 403 kts 109°
2026-04-26 05:10 32.74559 -118.07419 12990 ft 409 kts 89°
2026-04-26 05:10 32.75068 -118.04097 12988 ft 410 kts 75°
2026-04-26 05:11 32.75975 -118.00885 12990 ft 410 kts 70°
2026-04-26 05:11 32.76880 -117.97667 12988 ft 410 kts 74°
2026-04-26 05:11 32.77616 -117.94389 12985 ft 411 kts 76°
2026-04-26 05:11 32.78297 -117.91101 12985 ft 410 kts 77°
2026-04-26 05:12 32.78959 -117.87807 12984 ft 410 kts 77°
2026-04-26 05:12 32.79616 -117.84511 12983 ft 410 kts 77°
2026-04-26 05:12 32.80271 -117.81212 12986 ft 411 kts 77°
2026-04-26 05:12 32.80926 -117.77911 12986 ft 410 kts 77°
2026-04-26 05:13 32.81583 -117.74604 12985 ft 411 kts 77°
2026-04-26 05:13 32.82237 -117.71301 12985 ft 410 kts 78°
2026-04-26 05:13 32.82785 -117.67977 12985 ft 410 kts 81°
2026-04-26 05:13 32.83246 -117.64677 12985 ft 410 kts 82°
2026-04-26 05:14 32.83687 -117.61328 12987 ft 410 kts 83°
2026-04-26 05:14 32.84014 -117.57966 12991 ft 409 kts 86°
2026-04-26 05:14 32.84220 -117.54589 12991 ft 408 kts 91°
2026-04-26 05:14 32.84026 -117.51231 12996 ft 407 kts 98°
2026-04-26 05:15 32.83784 -117.47875 12998 ft 408 kts 97°
2026-04-26 05:15 32.83464 -117.44526 13012 ft 407 kts 101°
2026-04-26 05:15 32.82813 -117.41267 13010 ft 404 kts 109°
2026-04-26 05:15 32.81947 -117.38090 13015 ft 404 kts 112°
2026-04-26 05:16 32.81061 -117.34927 13021 ft 404 kts 110°
2026-04-26 05:16 32.80322 -117.31699 13025 ft 405 kts 107°
2026-04-26 05:16 32.79632 -117.28453 13035 ft 405 kts 107°
2026-04-26 05:16 32.78879 -117.25230 13037 ft 404 kts 109°
2026-04-26 05:17 32.78091 -117.22021 13034 ft 404 kts 109°
2026-04-26 05:17 32.77573 -117.19856 13038 ft 404 kts 108°
2026-04-26 05:17 32.76824 -117.16631 13022 ft 402 kts 108°
2026-04-26 05:17 32.76104 -117.13517 13010 ft 380 kts 109°
2026-04-26 05:18 32.75403 -117.10561 13007 ft 368 kts 109°
2026-04-26 05:18 32.74700 -117.07631 13005 ft 368 kts 109°
2026-04-26 05:18 32.74010 -117.04720 12694 ft 366 kts 109°
2026-04-26 05:18 32.73331 -117.01836 12524 ft 359 kts 109°
2026-04-26 05:19 32.72671 -116.99044 12439 ft 351 kts 109°
2026-04-26 05:19 32.72004 -116.96243 12298 ft 345 kts 109°
2026-04-26 05:19 32.71358 -116.93530 12123 ft 340 kts 109°
2026-04-26 05:19 32.70720 -116.90847 11959 ft 336 kts 109°
2026-04-26 05:20 32.70095 -116.88218 11425 ft 327 kts 109°
2026-04-26 05:20 32.69483 -116.85637 10804 ft 322 kts 110°
2026-04-26 05:20 32.68873 -116.83097 10228 ft 318 kts 110°
2026-04-26 05:20 32.68269 -116.80589 9628 ft 314 kts 110°
2026-04-26 05:21 32.67677 -116.78112 9000 ft 310 kts 110°
2026-04-26 05:21 32.67094 -116.75671 8408 ft 305 kts 109°
2026-04-26 05:21 32.66521 -116.73269 7796 ft 300 kts 109°
2026-04-26 05:21 32.65950 -116.70903 7193 ft 297 kts 108°
2026-04-26 05:22 32.65375 -116.68572 6593 ft 291 kts 111°
2026-04-26 05:22 32.64247 -116.66680 6057 ft 279 kts 148°
2026-04-26 05:22 32.62476 -116.65956 5833 ft 268 kts 184°
2026-04-26 05:22 32.60770 -116.66581 5742 ft 255 kts 220°
2026-04-26 05:23 32.59797 -116.68231 5694 ft 244 kts 255°
2026-04-26 05:23 32.59752 -116.70215 5547 ft 241 kts 276°
2026-04-26 05:23 32.60039 -116.72157 5441 ft 238 kts 280°
2026-04-26 05:23 32.60369 -116.74071 5220 ft 236 kts 281°
2026-04-26 05:24 32.60718 -116.75969 5069 ft 235 kts 281°
2026-04-26 05:24 32.61069 -116.77835 4972 ft 229 kts 281°
2026-04-26 05:24 32.61412 -116.79639 4732 ft 220 kts 281°
2026-04-26 05:24 32.61753 -116.81389 4456 ft 216 kts 281°
2026-04-26 05:25 32.62096 -116.83113 4161 ft 214 kts 281°
2026-04-26 05:25 32.62436 -116.84801 4045 ft 211 kts 282°
2026-04-26 05:25 32.62977 -116.86398 3992 ft 209 kts 292°
2026-04-26 05:25 32.63618 -116.87977 4016 ft 215 kts 294°
2026-04-26 05:26 32.64252 -116.89567 4038 ft 213 kts 293°
2026-04-26 05:26 32.64877 -116.91153 4031 ft 211 kts 293°
2026-04-26 05:26 32.65494 -116.92719 4026 ft 212 kts 293°
2026-04-26 05:26 32.66128 -116.94297 4019 ft 212 kts 295°
2026-04-26 05:27 32.66869 -116.95818 4015 ft 213 kts 298°
2026-04-26 05:27 32.67674 -116.97289 4016 ft 210 kts 302°
2026-04-26 05:27 32.68361 -116.98675 3997 ft 184 kts 293°
2026-04-26 05:27 32.68774 -117.00102 3994 ft 182 kts 284°
2026-04-26 05:28 32.69141 -117.01525 3954 ft 184 kts 285°
2026-04-26 05:28 32.69481 -117.02918 3714 ft 167 kts 284°
2026-04-26 05:28 32.69795 -117.04220 3400 ft 163 kts 283°
2026-04-26 05:28 32.70055 -117.05522 2927 ft 157 kts 282°
2026-04-26 05:29 32.70327 -117.06746 2216 ft 151 kts 286°
2026-04-26 05:29 32.70644 -117.07933 1891 ft 152 kts 286°
2026-04-26 05:29 32.70984 -117.09124 1733 ft 152 kts 286°
2026-04-26 05:29 32.71272 -117.10333 1520 ft 151 kts 284°
2026-04-26 05:30 32.71554 -117.11545 1246 ft 152 kts 285°
2026-04-26 05:30 32.71818 -117.12728 924 ft 143 kts 287°
2026-04-26 05:30 32.72109 -117.13881 748 ft 148 kts 287°
2026-04-26 05:30 32.72393 -117.15029 621 ft 149 kts 285°
2026-04-26 05:31 32.72670 -117.16165 380 ft 143 kts 288°
2026-04-26 05:31 32.72958 -117.17327 184 ft 149 kts 287°
2026-04-26 05:31 32.73244 -117.18519 48 ft 145 kts 286°
2026-04-26 05:31 32.73488 -117.19504 32 ft 97 kts 286°
2026-04-26 05:32 32.73614 -117.20026 31 ft 40 kts 286°
2026-04-26 05:32 32.73679 -117.20293 27 ft 26 kts 285°
2026-04-26 05:32 32.73644 -117.20416 30 ft 11 kts 193°
2026-04-26 05:32 32.73596 -117.20427 27 ft 0 kts 193°
2026-04-26 05:34 32.73595 -117.20427 27 ft 1 kts 191°
2026-04-26 05:35 32.73579 -117.20419 29 ft 6 kts 155°
2026-04-26 05:35 32.73561 -117.20361 27 ft 11 kts 96°
2026-04-26 05:35 32.73549 -117.20222 30 ft 23 kts 95°
2026-04-26 05:35 32.73504 -117.20006 31 ft 25 kts 113°
2026-04-26 05:36 32.73409 -117.19956 32 ft 12 kts 185°
2026-04-26 05:36 32.73325 -117.19971 31 ft 12 kts 201°
2026-04-26 05:36 32.73296 -117.20021 31 ft 3 kts 272°
2026-04-26 05:36 32.73301 -117.20050 31 ft 4 kts 278°
2026-04-26 05:37 32.73303 -117.20065 31 ft 0 kts 278°